Location: Newark
(48.5156°N, 1.8989°W)
Time: 02:18:59
(UTC+00:00)

deb Explorer IX - All Passes

Search period start: 16 November 2019 00:00
Search period end: 26 November 2019 00:00
Orbit: 546 x 1105 km, 38.8° (Epoch: 14 November)

Date Brightness Start Highest point End Pass type
(mag) Time Alt. Az. Time Alt. Az. Time Alt. Az.
16 Nov - 01:35:07 10° S 01:37:47 13° SSE 01:40:18 10° SE night (unlit)
16 Nov - 03:19:28 10° SW 03:23:57 24° S 03:27:56 10° ESE visible
16 Nov - 05:05:57 10° WSW 05:10:09 25° S 05:13:55 10° SE visible
16 Nov - 06:53:43 10° SW 06:56:03 14° SSW 06:58:16 10° S daylight
17 Nov - 01:12:44 10° S 01:15:48 14° SSE 01:18:41 10° ESE night (unlit)
17 Nov - 02:57:18 10° SW 03:02:00 25° S 03:06:09 10° ESE visible
17 Nov - 04:43:51 10° WSW 04:48:14 26° S 04:52:08 10° SE visible
17 Nov - 06:31:39 10° WSW 06:34:08 14° SSW 06:36:29 10° S visible
18 Nov - 00:50:23 10° S 00:53:48 15° SSE 00:57:00 10° ESE night (unlit)
18 Nov - 02:35:06 10° SW 02:40:02 27° S 02:44:23 10° ESE visible
18 Nov - 04:21:44 10° WSW 04:26:18 27° S 04:30:20 10° SE visible
18 Nov - 06:09:34 10° WSW 06:12:13 14° SSW 06:14:42 10° S visible
19 Nov - 00:28:02 10° S 00:31:47 16° SSE 00:35:16 10° ESE night (unlit)
19 Nov - 02:12:54 10° SW 02:18:03 28° S 02:22:35 10° ESE night (unlit)
19 Nov - 03:59:34 10° WSW 04:04:21 28° S 04:08:33 10° SE visible
19 Nov - 05:47:27 10° WSW 05:50:17 15° SSW 05:52:56 10° S visible
20 Nov - 00:05:43 10° SSW 00:09:45 17° SSE 00:13:30 10° ESE night (unlit)
20 Nov - 01:50:42 10° SW 01:56:03 29° S 02:00:46 10° ESE night (unlit)
20 Nov - 03:37:25 10° WSW 03:42:24 29° S 03:46:45 10° SE visible
20 Nov - 05:25:19 10° WSW 05:28:20 15° SSW 05:31:08 10° S visible
20 Nov - 23:43:24 10° SSW 23:47:42 18° SSE 23:51:43 10° ESE night (unlit)
21 Nov - 01:28:29 10° SW 01:34:02 30° S 01:38:57 10° ESE night (unlit)
21 Nov - 03:15:14 10° WSW 03:20:25 29° S 03:24:56 10° SE visible
21 Nov - 05:03:10 10° WSW 05:06:23 16° SSW 05:09:21 10° S visible
21 Nov - 23:21:07 10° SSW 23:25:38 19° SSE 23:29:53 10° ESE night (unlit)
22 Nov - 01:06:16 10° SW 01:12:00 31° S 01:17:06 10° ESE night (unlit)
22 Nov - 02:53:03 10° WSW 02:58:25 30° S 03:03:07 10° SE visible
22 Nov - 04:41:00 10° WSW 04:44:25 16° SSW 04:47:33 10° S visible
22 Nov - 22:58:49 10° SSW 23:03:34 19° SSE 23:08:01 10° ESE night (unlit)
23 Nov - 00:44:02 10° SW 00:49:57 32° S 00:55:13 10° ESE night (unlit)
23 Nov - 02:30:52 10° WSW 02:36:24 31° S 02:41:16 10° SE night (unlit)
23 Nov - 04:18:48 10° WSW 04:22:25 17° SSW 04:25:44 10° S visible
23 Nov - 22:36:33 10° SSW 22:41:29 20° SSE 22:46:08 10° ESE night (unlit)
24 Nov - 00:21:50 10° SW 00:27:53 33° S 00:33:20 10° ESE night (unlit)
24 Nov - 02:08:40 10° WSW 02:14:22 32° S 02:19:24 10° SE night (unlit)
24 Nov - 03:56:37 10° WSW 04:00:25 17° SSW 04:03:54 10° SSE visible
24 Nov - 22:14:18 10° SSW 22:19:23 21° SSE 22:24:12 10° ESE night (unlit)
24 Nov - 23:59:36 10° SW 00:05:48 33° S 00:11:25 10° ESE night (unlit)
25 Nov - 01:46:27 10° WSW 01:52:19 33° S 01:57:32 10° SE night (unlit)
25 Nov - 03:34:25 10° WSW 03:38:24 18° SSW 03:42:04 10° SSE visible
25 Nov - 21:52:04 10° SSW 21:57:16 21° SSE 22:02:15 10° ESE night (unlit)
25 Nov - 23:37:24 10° SW 23:43:42 34° S 23:49:29 10° ESE night (unlit)
